STARLINK-3863 (52465 NORAD) Tracking and Keplerian Element Data

This shows tracking and keplerian element data for the satellite.

Feedback or suggestion? Click here.




ElementValue
Catalog52465
NameSTARLINK-3863
Epoch Orbit130
Epoch Day167.08334491
Epoch Year2022
RAAN65.0114
Inclination53.2169
Eccentricity0.00017
Argument of Perigee32.1828
Mean Anonmoly102.7809
Mean Motion15.73190682
Decay Rate0.00087163
L11 52465U 22049Q 22167.08334491 .00087163 00000+0 61927-3 0 9991
L22 52465 53.2169 65.0114 0001700 32.1828 102.7809 15.73190682 1302

Live tracking and technical data element details for STARLINK-3863 (NORAD 52465). STARLINK-3863 can be tracked NOW for your location showing map with azimuth and elevation plus other details from your city location.

Track the satellite on the map from your city or location and see movement details for azimuth, elevation, latitude, longitude, range, height, and movement on the map or in text.







IsCatalogInMostPopularTable: catalog: 52465, numindb: 1
Update: records affected: 1



GetName: 52465 STARLINK-3863

Hit Count: updated at: Mon, 27 Jun 2022 06:32:29 GMT